THORAD AGENA D DEB, 18785

Orbit data source: Space-Track

THORAD AGENA D DEB, 18785 is space debris in SSO originally from a launch on Wed, 08 Apr 1970 UTC launched from the Air Force Western Test Range (AFWTR). Debris objects in space refer to the collection of defunct objects orbiting the Earth. Examples of debris include non-operational satellites, rocket bodies, and fragments generated from explosions, collisions, or faulty payload assembly.

Loading next visibility...
Identifier
18785, 1970-025PQ
Orbit
SSO
Country
Flag of USUS
Related business
Manufacturer
Unknown
Mission
Spacecraft
Bus & Motor
Unknown
Mass
Unknown
Launch date (UTC)
1970-04-08 (56 years ago)
Launch vehicle
Unknown
Launch site
Air Force Western Test Range (AFWTR)
Object type
Payload
Rocket body
Debris
Shape & HBR
Unknown shape, 0.1 m
Radar Cross Section
Medium (>0.1 m² and <1 m²)

Expand to show TLE details & history
Last TLE update: 2 days ago

TLE from 2 days ago
0 THORAD AGENA D DEB
1 18785U 70025PQ  26235.22369213  .00000180  00000-0  29758-3 0  9992
2 18785 100.0142 140.3494 0002205 111.0815  41.0179 13.61302782613904
Epoch: 2026-08-23T05:22Z
TLE epoch observation values (Epoch: 2026-08-23T05:22:07.000Z)
Latitude
27.46351°
Longitude
-86.46383°
Altitude
1,032.981 km
Speed
7.338 km/s
True Right ascension
21h 42m 21s
True Declination
27° 19' 42"
Sunlit
Object was in full shadow at epoch
Visualization orbit readout
Latitude
Unknown
Longitude
Unknown
Altitude
Unknown
Speed
Unknown
Apparent Right ascension
Unknown
Apparent Declination
Unknown
Sunlit
N/A
Visualization observer readout
Local Sidereal Time
02:30:35
Azimuth
Unknown
Elevation
Unknown
Doppler factor
Unknown
Orbital elements
Apogee altitude
1,029.897 km
Perigee altitude
1,026.631 km
Semi-major axis
7,406.401 km
Eccentricity
0.00022
Inclination
100.0142°
RAAN
140.3494°
Arg. of periapsis
111.0815°
True anomaly
41.03449°
Mean anomaly
41.0179°
Eccentric anomaly
41.02619°
Mean motion
3.40512 °/min
Orbital period
105.72 mins
BSTAR
0.00029758
Loading maneuver chart data...
Computing Atmospheric mass density...

Documentation

Showing up to 5 results
|